Home > Weather > Kehl > Past weeks

Flag for Germany Past Weather in Kehl, Baden-Württemberg, Germany — Yesterday and Last 2 Weeks

Now
63 °F

Light rain. Overcast.


Feels Like: 63 °F
Forecast: 59 / 65 °F
Wind: 2 mph from North

Location: Strasbourg Airport

Current Time: May 29, 2016 at 11:13:04 PM

Latest Report: May 29, 2016 at 10:30 PM


Visibility: N/A

Pressure: 29.71 "Hg

Humidity: 94%

Dew Point: 61 °F

Location of KehlLocation

Past Weather in Kehl — Graph

°F

Kehl Temperature Yesterday

Maximum temperature yesterday: 81 °F (at 2:30 PM)
Minimum temperature yesterday: 61 °F (at 7:30 PM)
Average temperature yesterday: 69 °F

High & Low Weather Summary for the Past Weeks

 TemperatureHumidityPressure
High81 °F (May 22, 1:30 PM)100% (May 17, 5:30 AM)30.18 "Hg (May 17, 5:30 AM)
Low41 °F (May 17, 5:30 AM)30% (May 22, 3:30 PM)29.68 "Hg (May 29, 3:30 PM)
Average59 °F72%29.97 "Hg
* Reported May 14 9:00 PM — May 29 9:30 PM, Kehl, Weather by CustomWeather, © 2016

Note: Actual official high and low records may vary slightly from our data, if they occured in-between our weather recording intervals... More about our weather records

Advertising

Kehl Weather History for the Previous 24 Hours

Scroll right to see more
 ConditionsComfort  
Time TempWeatherWind HumidityBarometerVisibility
9:30 PM
Sun, May 29
64 °FLight rain. Clear.7 mph88%29.71 "HgN/A
9:00 PM64 °FLight rain. More clouds than sun.7 mph88%29.71 "HgN/A
8:30 PM64 °FCloudy.6 mph88%29.71 "HgN/A
8:00 PM64 °FMore clouds than sun.3 mph88%29.68 "HgN/A
7:30 PM64 °FDrizzle. Mostly cloudy.2 mph88%29.71 "HgN/A
7:00 PM64 °FDrizzle. Partly sunny.2 mph83%29.71 "HgN/A
6:30 PM64 °FLight rain. Partly sunny.3 mph83%29.71 "HgN/A
6:00 PM66 °FPartly sunny.7 mph78%29.71 "HgN/A
5:30 PM66 °FPartly sunny.10 mph73%29.71 "HgN/A
5:00 PM66 °FBroken clouds.12 mph78%29.71 "HgN/A
4:30 PM68 °FBroken clouds.14 mph73%29.68 "HgN/A
4:00 PM70 °FPartly sunny.7 mph69%29.68 "HgN/A
3:30 PM70 °FPartly sunny.7 mph69%29.68 "HgN/A
3:00 PM70 °FPartly sunny.7 mph69%29.71 "HgN/A
2:30 PM70 °FMild.7 mph69%29.71 "HgN/A
2:00 PM70 °FPassing clouds.7 mph69%29.71 "HgN/A
1:30 PM70 °FPartly sunny.6 mph64%29.71 "HgN/A
1:00 PM70 °FPartly sunny.6 mph69%29.71 "HgN/A
12:30 PM70 °FPartly sunny.5 mph69%29.71 "HgN/A
12:00 PM68 °FPartly sunny.6 mph73%29.71 "HgN/A
11:30 AM66 °FPassing clouds.6 mph78%29.71 "HgN/A
11:00 AM66 °FBroken clouds.6 mph73%29.71 "HgN/A
10:30 AM66 °FPartly sunny.6 mph78%29.71 "HgN/A
10:00 AM66 °FScattered clouds.5 mph78%29.71 "HgN/A
9:30 AM64 °FPassing clouds.7 mph83%29.71 "HgN/A
9:00 AM64 °FPartly sunny.5 mph78%29.71 "HgN/A
8:30 AM64 °FSunny.2 mph83%29.71 "Hg10 mi
8:00 AM63 °FSunny.5 mph88%29.71 "Hg10 mi
7:30 AM59 °FSunny.2 mph94%29.71 "Hg10 mi
7:00 AM59 °FPassing clouds.3 mph94%29.71 "HgN/A
6:30 AM57 °FPassing clouds.5 mph94%29.74 "HgN/A
6:00 AM57 °FClear.6 mph94%29.71 "Hg10 mi
5:30 AM57 °FPassing clouds.3 mph94%29.71 "HgN/A
5:00 AM59 °FClear.3 mph88%29.71 "Hg10 mi
4:30 AM59 °FCool.5 mph88%29.74 "HgN/A
4:00 AM59 °FRain. Overcast.8 mph94%29.74 "HgN/A
3:30 AM59 °FRain. Mostly cloudy.5 mph94%29.77 "HgN/A
3:00 AM59 °FStrong thunderstorms. Fog.16 mph88%29.80 "Hg1 mi
2:30 AM61 °FMostly cloudy.8 mph94%29.77 "Hg4 mi
2:00 AM63 °FMostly cloudy.5 mph88%29.74 "Hg5 mi
1:30 AM63 °FLight rain. Partly cloudy.7 mph88%29.77 "Hg5 mi
1:00 AM63 °FLow clouds.8 mph94%29.77 "HgN/A
12:30 AM63 °FPartly cloudy.5 mph94%29.77 "HgN/A
12:00 AM63 °FLight rain. Overcast.5 mph94%29.80 "HgN/A
11:30 PM
Sat, May 28
63 °FMild.5 mph94%29.80 "HgN/A
11:00 PM63 °FClear.7 mph88%29.77 "Hg10 mi
Weather by CustomWeather, © 2016

See weather overviewHow to use our weather pages